Regional Weather Roundup
Issued by NWS

Home | Current Version | Previous Version | Graphics & Text | Print | Product List | Glossary Off
Versions: 1 2 3 4 5 6 7 8 9 10 11 12 13 14 15 16 17 18 19 20 21 22 23 24 25 26 27 28 29 30 31 32 33 34 35 36 37 38 39 40 41 42 43 44 45 46 47 48 49 50

000
ASUS43 KMKX 210100
RWRWI

WISCONSIN REGIONAL WEATHER ROUNDUP
NATIONAL WEATHER SERVICE MILWAUKEE/SULLIVAN WI
800 PM CDT WED AUG 20 2014

NOTE: "FAIR" INDICATES FEW OR NO CLOUDS BELOW 12,000 FEET WITH NO
SIGNIFICANT WEATHER AND/OR OBSTRUCTIONS TO VISIBILITY.

WIZ001-002-006>008-014>016-023>028-210200-
NORTHWEST WISCONSIN

CITY           SKY/WX    TMP DP  RH WIND       PRES   REMARKS
SUPERIOR ARPT  CLOUDY    65  61  85 NE5       29.91S
ASHLAND        CLOUDY    66  61  84 E3        29.94S
HAYWARD        PTCLDY    66  63  90 NE3       29.91F
SIREN          PTCLDY    70  62  75 E5        29.90R
RICE LAKE      PTCLDY    70  62  76 E5        29.91S
LADYSMITH      PTCLDY    68  63  84 NE3       29.93S
EAU CLAIRE     NOT AVBL
MENOMONIE      MOCLDY    73  64  74 E5        29.89R
NEW RICHMOND   PTCLDY    72  64  77 E3        29.89R
OSCEOLA        PTCLDY    73  66  79 E5        29.90R
$$

WIZ003>005-009-010-017-018-210200-
NORTH CENTRAL WISCONSIN

CITY           SKY/WX    TMP DP  RH WIND       PRES   REMARKS
WOODRUFF       CLOUDY    67  61  80 CALM      29.95S
RHINELANDER    CLOUDY    65  62  90 CALM      29.96R
EAGLE RIVER    CLOUDY    65  59  80 CALM      29.95R
LAND O LAKES   CLOUDY    64  61  92 N3        29.96S FOG
PHILLIPS       CLOUDY    66  62  87 NE3       29.93F
TOMAHAWK       CLOUDY    66  61  84 CALM      29.94S
MEDFORD        PTCLDY    65  62  89 CALM      29.92S
MERRILL        MOCLDY    67  63  86 CALM      29.93S
$$

WIZ029-030-035-036-043>047-210200-
CENTRAL WISCONSIN

CITY           SKY/WX    TMP DP  RH WIND       PRES   REMARKS
WAUSAU         PTCLDY    68  63  84 NE3       29.90S
MOSINEE        PTCLDY    66  63  88 VRB3      29.92S
MARSHFIELD     PTCLDY    71  62  73 CALM      29.91S
STEVENS POINT  PTCLDY    68  61  78 NE5       29.91S
WAUPACA        PTCLDY    73  64  74 CALM      29.91R
WAUTOMA        NOT AVBL
WISC RAPIDS    PTCLDY    69  63  81 CALM      29.92R
CAMP DOUGLAS   NOT AVBL
$$

WIZ011>013-019>022-031-037>040-048>050-210200-
NORTHEAST WISCONSIN

CITY           SKY/WX    TMP DP  RH WIND       PRES   REMARKS
ANTIGO         CLOUDY    67  62  83 CALM      29.94S
STURGEON BAY   CLEAR     66  61  82 CALM      29.93R
GREEN BAY      CLEAR     66  63  90 CALM      29.91R
MANITOWOC      NOT AVBL
APPLETON       PTCLDY    72  61  68 VRB5      29.92
CLINTONVILLE   CLEAR     70  63  78 CALM      29.91R
OSHKOSH        PTCLDY    72  64  76 NE6       29.91R
$$

WIZ032>034-041-042-053>061-210200-
SOUTHWEST WISCONSIN

CITY           SKY/WX    TMP DP  RH WIND       PRES   REMARKS
LA CROSSE      PTCLDY    79  68  69 E5        29.86S HX  81
SPARTA         MOCLDY    75  66  75 NE5       29.89S
VIROQUA        FAIR      76  69  78 CALM      29.90S
BOSCOBEL       MOCLDY    78  68  71 S6        29.88R HX  80
PRAIRIE DU CHI MOCLDY    76  64  67 CALM      29.87S
PLATTEVILLE    FAIR      74  69  85 S5        29.91F
$$

WIZ056-057-062-063-064-067-068-210200-
SOUTH CENTRAL WISCONSIN

CITY           SKY/WX    TMP DP  RH WIND       PRES   REMARKS
BARABOO/DELLS  MOCLDY    77  66  68 CALM      29.90R
LONE ROCK      NOT AVBL
WATERTOWN      PTCLDY    76  69  77 E5        29.87F
MADISON        MOCLDY    76  68  76 CALM      29.89R
MIDDLETON      CLOUDY    79  69  72 CALM      29.89R HX  82
MONROE         CLOUDY    79  68  69 SW9       29.91R HX  81
JANESVILLE     PTCLDY    81  64  57 SW5       29.88R HX  82
$$

WIZ051-052-058>065-066-070>072-210200-
SOUTHEAST WISCONSIN

CITY           SKY/WX    TMP DP  RH WIND       PRES   REMARKS
MILWAUKEE      MOCLDY    69  65  86 NE6       29.89F
WAUKESHA       MOCLDY    72  63  73 E7        29.91S
MILWAUKEE/TIMM CLEAR     72  61  68 E7        29.91S
RACINE         MOCLDY    70  66  87 E6        29.91S
BURLINGTON     MOCLDY    73  70  89 CALM      29.88F
KENOSHA        MOCLDY    71  68  90 NE7       29.89S FOG
FOND DU LAC    MOCLDY    73  65  75 E5        29.91R
SHEBOYGAN      CLEAR     67  63  87 SE5       29.92R
WEST BEND      PTCLDY    68  61  77 SE5       29.91S
JUNEAU         PTCLDY    73  42  32 N8        29.90S
$$

LSZ147-162-210200-
LAKE SUPERIOR

STATION/POSITION TIME  TEMP    WIND        PRES    WAVE
                       AIR SEA DIR/SP/G            HT/PER
                 (UTC) (F)     (DEG/KT/KT) (MB)    (FT/S)
W MID LAKE BUOY  2350   59 59  100/  2/  2 1013.7R   0
DEVILS ISLAND    0000   64      80/  8/  9 1013.4R
PORT WING        0000   68      20/  5/  6 1013.2S
SAXON HARBOR     0000   66      40/  4/  4 1013.5S
$$

LMZ867-665-643>646-210200-
LAKE MICHIGAN

STATION/POSITION TIME  TEMP    WIND        PRES    WAVE
                       AIR SEA DIR/SP/G            HT/PER
                 (UTC) (F)     (DEG/KT/KT) (MB)    (FT/S)
N MID LAKE BUOY  2350   63 63  220/  6/  6 1012.7R   1
NORTHPORT PIER   0000   65     140/  3/  4 1013.2R
SISTER BAY       0026   67     120/  4/  6   N/A
KEWAUNEE LAKESHO 0000   66     170/  9/ 10 1012.0R
SHEBOYGAN LAKESH 0000   67 67  130/  2/  2 1012.8F
ATWATER BUOY     0000   69      60/  6/  6 1013.5R
MILWAUKEE LAKESH 0000   70      40/  2/  3   N/A
S MID LAKE BUOY  2350   69 68   60/  6/  6 1012.2R   0
KENOSHA   LAKESH 0000   71      60/  5/  6 1011.9R
$$

TC  - TEMPERATURE IN CELSIUS
VSB - VISIBILITY IN STATUTE MILES
WCI - WIND CHILL INDEX
HX  - HEAT INDEX



USA.gov is the U.S. government's official web portal to all federal, state and local government web resources and services.